Regional Weather Roundup
Issued by NWS

Home | Current Version | Previous Version | Graphics & Text | Print | Product List | Glossary On
Versions: 1 2 3 4 5 6 7 8 9 10 11 12 13 14 15 16 17 18 19 20 21 22 23 24 25 26 27 28 29 30 31 32 33 34 35 36 37 38 39 40 41 42 43 44 45 46 47 48 49 50
801
ASUS43 KLSX 221807
RWRMO

WEATHER SUMMARY FOR MISSOURI
NATIONAL WEATHER SERVICE SPRINGFIELD MO
100 PM CDT FRI MAY 22 2015

NOTE: "FAIR" INDICATES FEW OR NO CLOUDS BELOW 12,000 FEET WITH NO
       SIGNIFICANT WEATHER AND/OR OBSTRUCTIONS TO VISIBILITY.
       CURRENT SKY AND/OR WEATHER CONDITIONS ARE NOT AVAILABLE FOR
       CHILLICOTHE AND FARMINGTON.

MOZ001>031-035>038-043-044-053-054-221900-
...NORTHERN AND WESTERN MISSOURI...

CITY           SKY/WX    TMP DP  RH WIND       PRES   REMARKS
KANSAS CTY INT CLOUDY    61  49  64 S10       30.27F
6HR MIN TEMP:  54; 6HR MAX TEMP:  61;

KANSAS C DTWN  CLOUDY    64  46  52 S7        30.26F
6HR MIN TEMP:  53; 6HR MAX TEMP:  64;

LEE`S SUMMIT   CLOUDY    62  46  55 S7        30.27F
6HR MIN TEMP:  49; 6HR MAX TEMP:  63;

ST JOSEPH      CLOUDY    62  49  62 S6        30.26F
6HR MIN TEMP:  49; 6HR MAX TEMP:  63;

CHILLICOTHE      N/A     67  51  56 VRB3      30.27S
6HR MIN TEMP:  50; 6HR MAX TEMP:  67;

KIRKSVILLE     CLOUDY    71  50  47 CALM      30.25S
6HR MIN TEMP:  53; 6HR MAX TEMP:  72;


$$
MOZ066>068-077>081-088>096-101>105-221900-
...SOUTHWEST MISSOURI...

CITY           SKY/WX    TMP DP  RH WIND       PRES   REMARKS
SPRINGFIELD    PTSUNNY   66  45  46 VRB3      30.28F
6HR MIN TEMP:  48; 6HR MAX TEMP:  67;

JOPLIN         CLOUDY    63  47  55 S7        30.28F
6HR MIN TEMP:  49; 6HR MAX TEMP:  65;


$$
MOZ032>034-039>042-045>050-055>058-069>072-221900-
...CENTRAL MISSOURI...

CITY           SKY/WX    TMP DP  RH WIND       PRES   REMARKS
COLUMBIA       CLOUDY    67  50  54 W7        30.27S
6HR MIN TEMP:  52; 6HR MAX TEMP:  69;

JEFFERSON CITY CLOUDY    69  48  47 W7        30.27S
6HR MIN TEMP:  49; 6HR MAX TEMP:  70;

ROLLA          CLOUDY    64  51  62 SW10      30.28R
6HR MIN TEMP:  46; 6HR MAX TEMP:  66; 6HR PCP: TRACE;

SEDALIA        CLOUDY    63  50  62 W7        30.30S
6HR MIN TEMP:  51; 6HR MAX TEMP:  66;

WHITEMAN AFB   CLOUDY    63  48  58 SW7       30.27F
WARRENSBURG    CLOUDY    63  46  55 S7        30.28F
OSAGE BEACH    CLOUDY    66  48  52 SW7       30.29F

$$
MOZ051-052-059>065-221900-
...EAST CENTRAL MISSOURI...

CITY           SKY/WX    TMP DP  RH WIND       PRES   REMARKS
ST LOUIS INTL  PTSUNNY   75  51  43 S3        30.25S
6HR MIN TEMP:  55; 6HR MAX TEMP:  75;

SPIRIT OF STL  PTSUNNY   72  49  44 W7        30.24S
6HR MIN TEMP:  51; 6HR MAX TEMP:  73;

ST CHARLES     PTSUNNY   73  47  39 CALM      30.23S
6HR MIN TEMP:  51; 6HR MAX TEMP:  74;


$$
MOZ072>076-082>087-097>100-106>115-221900-
...SOUTH CENTRAL AND SOUTHEAST MISSOURI...

CITY           SKY/WX    TMP DP  RH WIND       PRES   REMARKS
CAPE GIRARDEAU MOSUNNY   67  49  52 SW5       30.28F
6HR MIN TEMP:  47; 6HR MAX TEMP:  69;

FARMINGTON     MOSUNNY   70  50  49 S7        30.31S
6HR MIN TEMP:  45; 6HR MAX TEMP:  70;

POPLAR BLUFF   MOSUNNY   68  47  46 SW7       30.29S
6HR MIN TEMP:  47; 6HR MAX TEMP:  68;

WEST PLAINS    PTSUNNY   64  46  52 CALM      30.31S
6HR MIN TEMP:  47; 6HR MAX TEMP:  64;


$$



USA.gov is the U.S. government's official web portal to all federal, state and local government web resources and services.